Battle Mountain, Nevada, United States (89820)
Lat: 40.64N, Lon: 116.93W
Wx Zone: NVZ036
Local Info
Past Weather Observations for Saturday, April 23, 2016

NOTE: This archive is for the closest National Weather Service station to Battle Mountain. Information may differ from the station used for current weather conditions.

Click here for Long-term Archive

Time Weather Temperature Dewpoint Humidity Pressure Winds Precip Visibility
23:56
Clear
43°F / 6°C 25°F / -4°C 49% 30.04 in
(1017 mb)
N 4.6 mph
(N 7 kph)
- 10SM
22:56
Clear
43°F / 6°C 25°F / -4°C 49% 30.04 in
(1017 mb)
Calm - 10SM
21:56
Partly Cloudy
45°F / 7°C 25°F / -4°C 46% 30.04 in
(1017 mb)
N 5.8 mph
(N 9 kph)
- 10SM
20:56
Mostly Cloudy
45°F / 7°C 25°F / -4°C 46% 30.04 in
(1017 mb)
SSW 6.9 mph
(SSW 11 kph)
- 10SM
19:56
Partly Cloudy
46°F / 8°C 23°F / -5°C 40% 30.04 in
(1017 mb)
SW 9.2 mph
(SW 15 kph)
- 10SM
18:56
Partly Cloudy
54°F / 12°C 21°F / -6°C 28% 30.01 in
(1016 mb)
SSW 12.7 mph
(SSW 20 kph)
- 10SM
17:56
Clear
59°F / 15°C 21°F / -6°C 23% 29.98 in
(1015 mb)
W 13.8 mph
(W 22 kph)
- 10SM
16:56
Clear
61°F / 16°C 19°F / -7°C 20% 29.98 in
(1015 mb)
W 13.8 mph
(W 22 kph)
- 10SM
15:56
Mostly Cloudy
63°F / 17°C 23°F / -5°C 22% 29.98 in
(1015 mb)
W 20.7 mph
(W 33 kph)
- 10SM
14:56
Clear
63°F / 17°C 21°F / -6°C 20% 29.98 in
(1015 mb)
SSW 10.4 mph
(SSW 17 kph)
- 10SM
13:56
Partly Cloudy
63°F / 17°C 25°F / -4°C 24% 30.01 in
(1016 mb)
W 19.6 mph
(W 32 kph)
- 10SM
12:56
Partly Cloudy
59°F / 15°C 27°F / -3°C 29% 30.01 in
(1016 mb)
NW 10.4 mph
(NW 17 kph)
- 10SM
11:56
Partly Cloudy
57°F / 14°C 28°F / -2°C 33% 30.01 in
(1016 mb)
W 19.6 mph
(W 32 kph)
- 10SM
10:56
Mostly Cloudy
54°F / 12°C 32°F / 0°C 44% 30.04 in
(1017 mb)
SSW 17.3 mph
(SSW 28 kph)
- 10SM
09:56
Partly Cloudy
54°F / 12°C 34°F / 1°C 47% 30.01 in
(1016 mb)
W 15 mph
(W 24 kph)
- 10SM
08:56
Overcast
48°F / 9°C 34°F / 1°C 58% 30.01 in
(1016 mb)
W 20.7 mph
(W 33 kph)
- 10SM
07:56
Overcast
46°F / 8°C 36°F / 2°C 66% 30.01 in
(1016 mb)
WNW 9.2 mph
(WNW 15 kph)
- 10SM
06:56
Overcast
43°F / 6°C 36°F / 2°C 76% 30.01 in
(1016 mb)
SSW 11.5 mph
(SSW 19 kph)
0.00 in
(0.00 mm)
10SM
06:20
Overcast
41°F / 5°C 36°F / 2°C 81% 29.98 in
(1015 mb)
SSW 8.1 mph
(SSW 13 kph)
0.00 in
(0.00 mm)
10SM
05:56
Overcast
Light Rain
41°F / 5°C 36°F / 2°C 81% 29.98 in
(1015 mb)
W 8.1 mph
(W 13 kph)
0.00 in
(0.00 mm)
10SM
04:56
Overcast
41°F / 5°C 36°F / 2°C 81% 29.95 in
(1014 mb)
W 10.4 mph
(W 17 kph)
- 10SM
03:56
Overcast
41°F / 5°C 36°F / 2°C 81% 29.92 in
(1013 mb)
SSW 17.3 mph
(SSW 28 kph)
- 10SM
02:56
Overcast
39°F / 4°C 37°F / 3°C 93% 29.92 in
(1013 mb)
SSW 12.7 mph
(SSW 20 kph)
0.01 in
(0.25 mm)
10SM
02:24
Overcast
Light Rain
39°F / 4°C 37°F / 3°C 93% 29.89 in
(1012 mb)
SSW 11.5 mph
(SSW 19 kph)
0.00 in
(0.00 mm)
10SM
01:56
Overcast
Light Rain
39°F / 4°C 36°F / 2°C 87% 29.89 in
(1012 mb)
SSW 18.4 mph
(SSW 30 kph)
0.05 in
(1.27 mm)
10SM
01:53
Overcast
Light Rain
39°F / 4°C 36°F / 2°C 87% 29.89 in
(1012 mb)
SSW 17.3 mph
(SSW 28 kph)
0.05 in
(1.27 mm)
10SM
00:56
Overcast
43°F / 6°C 34°F / 1°C 71% 29.86 in
(1011 mb)
SSW 16.1 mph
(SSW 26 kph)
- 10SM
Time Weather Temperature Dewpoint Humidity Pressure Winds Precip Visibility


Weather for websites

WeatherForYou.com, LLC is not responsible for any damages or problems caused by this service. Current weather conditions are obtained from the closest station including government and personal stations which may have varying degrees of accuracy. Weather forecasts are derived from the NOAA NDFD. Like all things, this site belongs to Jesus Christ... He just trusts us to maintain it. If you have any questions or comments email webmaster@weatherforyou.com

Copyright © 2016, WeatherForYou.com LLC. All rights reserved.